"Pseudo-MPEC" for P10MbO1

Created 2019 Feb 13 4:18:41 UT using Find_Orb

Click here for an explanation of pseudo-MPECs

 
 Astrometry: 
     P10MbO1  C2019 02 05NS;=NfPM.U!jZiuViAstrometryc%X.n(]Z_A#vI08f_XpffKg0`F51
     P10MbO1  C2019 02 052[$'ca#r]n,6`redacted;MOC;_I\o/lU%$u2_T9#JUBl`jxPQKIF51
     P10MbO1  C2019 02 05[$3`$k57Pi*-m9g5+MZ*X1/84X3w*kUeJB%N3;?=^J%R=lAI@!-RF51
     P10MbO1 ^C2019 02 06.53831309 32 22.540-07 02 04.28   ~26Im 21.76GVNEOCP568
     P10MbO1 ^C2019 02 06.53927309 32 22.695-07 02 04.73   ~26Im 21.77GVNEOCP568
     P10MbO1 ^C2019 02 06.54022009 32 22.860-07 02 05.23   ~26Im 21.93GVNEOCP568
     P10MbO1 ^C2019 02 06.54117009 32 23.015-07 02 05.71   ~26Im 21.75GVNEOCP568
     P10MbO1 ^C2019 02 06.54214609 32 23.173-07 02 06.17   ~26Im 21.84GVNEOCP568
     P10MbO1 ^C2019 02 06.54311309 32 23.335-07 02 06.67   ~26Im 21.76GVNEOCP568
     P10MbO1  C2019 02 12x3I-Ss)XGpsAgXkldb_+1Y-1siclick!NrX+'3^pqfjCThFfP+rbV06
     P10MbO1  C2019 02 12P[A/a'6O?kE6m2[6f]X2$.rvJ\/_2;bv^K^e3^-2OThereD0D0GwV06
     P10MbO1  C2019 02 120NqL64t9:9/'x:MJ^7nI^Jd5Ie$Tv,BnXq-s0=Tb3ni^-,0?W0)FV06
     P10MbO1  C2019 02 12mRaY#I,4@`PSU@kRL?c\/oK3for\oCPJu7)S`5AZuq4*kYleLeNbV06
     P10MbO1 pC2019 02 129Dfi[oBv^=V44DrZXsCyErg/M4gQs1=bGg^w%!-mj,fJd9Palu3.L01
     P10MbO1 KC2019 02 12\BiT_jAwASNnw44GRMQ:sM(CpOsexplanationA1pde/T``ua9$/L01

Station data:
(568) Mauna Kea  (N19.826116 W155.472200)  US/Hawaii.
(F51) Pan-STARRS 1, Haleakala  (N20.707235 W156.255910)  US/Hawaii.
   Observers N. Primak, A. Schultz, S. Watters, J. Thiel, T. Goggia. Measurer
   PS1 Science Consortium. 1.8-m Ritchey-Chrétien + CCD.
(L01) Višnjan Observatory, Tičan  (N45.290900 E13.749300)  Croatia.
   Observers K. Korlević, E. Pettarin. Measurer E. Pettarin. 1.0-m f/2.9
   reflector + CCD.
(V06) Catalina Sky Survey-Kuiper  (N32.416847 W110.732550)  US/Arizona.
   Observers B. M. Africano, E. J. Christensen, G. A. Farneth, D. C. Fuls, A.
   R. Gibbs, A. D. Grauer, H. Groeller, J. A. Johnson, R. A. Kowalski, S. M.
   Larson, G. J. Leonard, R. L. Seaman, F. C. Shelly. 1.55-m reflector + CCD.

Orbital elements:  P10MbO1
   Perihelion 2019 Mar 20.320668 +/- 0.015 TT =  7:41:45 (JD 2458562.820668)
Epoch 2019 Feb 12.0 TT = JDT 2458526.5   Earth MOID: 0.0290   AutoNEOCP
M 342.89114198 +/- 0.14             (J2000 ecliptic)
n   0.47105020 +/- 0.00425          Peri.   21.91672 +/- 0.043
a   1.63590439 +/- 0.00984          Node   161.24045 +/- 0.010
e   0.3821193 +/- 0.00366           Incl.    5.69509 +/- 0.041
P   2.09/764.24d           H 25.5   G  0.15   U  9.1  
q 1.01079364 +/- 9.93e-5    Q 2.26101514 +/- 0.0199
From 15 observations 2019 Feb. 5-12; mean residual 0".16
Residuals in arcseconds: 
190205 F51  .06-  .18+    190206 568  .04+  .07-    190212 V06  .11+  .08-    
190205 F51  .12+  .02-    190206 568  .00   .08-    190212 V06  .04+  .26+    
190205 F51  .02+  .02+    190206 568  .05-  .06-    190212 V06  .03-  .09+    
190206 568  .02-  .07-    190206 568  .03-  .09-    190212 L01  .17-  .19-    
190206 568  .08-  .04-    190212 V06  .03+  .58+    190212 L01  .07+  .36-    

Ephemerides (geocentric):
Date (UTC) HH   RA              Dec         delta   r     elong  mag " sig PA
---- -- -- --  -------------   -----------  ------ ------ -----  --- ---- ---
2019 02 13 04  09 59 43.808   -07 49 08.04  .09407 1.0752 158.3 21.5 .739 159
2019 02 13 05  09 59 57.112   -07 49 21.34  .09390 1.0751 158.3 21.5 .763 158
2019 02 13 06  10 00 10.463   -07 49 34.58  .09374 1.0749 158.3 21.5 .787 157
2019 02 13 07  10 00 23.859   -07 49 47.74  .09357 1.0748 158.3 21.5 .812 156
2019 02 13 08  10 00 37.303   -07 50 00.82  .09340 1.0746 158.3 21.5 .838 155
2019 02 13 09  10 00 50.794   -07 50 13.84  .09324 1.0745 158.3 21.5 .864 155
2019 02 13 10  10 01 04.333   -07 50 26.77  .09308 1.0743 158.4 21.5 .890 154
2019 02 13 11  10 01 17.919   -07 50 39.64  .09291 1.0742 158.4 21.5 .917 153
2019 02 13 12  10 01 31.552   -07 50 52.43  .09275 1.0741 158.4 21.5 .945 152
2019 02 13 13  10 01 45.234   -07 51 05.14  .09258 1.0739 158.4 21.5 .973 151
2019 02 13 14  10 01 58.963   -07 51 17.78  .09242 1.0738 158.4 21.5 1.00 151
2019 02 13 15  10 02 12.741   -07 51 30.34  .09225 1.0736 158.4 21.5 1.03 150
2019 02 13 16  10 02 26.568   -07 51 42.82  .09209 1.0735 158.4 21.5 1.06 149
2019 02 13 17  10 02 40.443   -07 51 55.23  .09193 1.0733 158.4 21.5 1.09 149
2019 02 13 18  10 02 54.367   -07 52 07.56  .09176 1.0732 158.4 21.5 1.12 148
2019 02 13 19  10 03 08.341   -07 52 19.81  .09160 1.0731 158.4 21.5 1.15 148
2019 02 13 20  10 03 22.363   -07 52 31.98  .09144 1.0729 158.4 21.5 1.18 147
2019 02 13 21  10 03 36.436   -07 52 44.08  .09127 1.0728 158.4 21.5 1.21 146
2019 02 13 22  10 03 50.558   -07 52 56.09  .09111 1.0726 158.4 21.5 1.25 146
2019 02 13 23  10 04 04.730   -07 53 08.03  .09095 1.0725 158.4 21.5 1.28 145
2019 02 14 00  10 04 18.952   -07 53 19.89  .09078 1.0724 158.5 21.5 1.31 145
2019 02 14 01  10 04 33.225   -07 53 31.66  .09062 1.0722 158.5 21.4 1.35 144
2019 02 14 02  10 04 47.549   -07 53 43.36  .09046 1.0721 158.5 21.4 1.38 144
2019 02 14 03  10 05 01.923   -07 53 54.97  .09030 1.0719 158.5 21.4 1.42 143
2019 02 14 04  10 05 16.348   -07 54 06.50  .09014 1.0718 158.5 21.4 1.45 143
2019 02 14 05  10 05 30.825   -07 54 17.95  .08997 1.0716 158.5 21.4 1.49 143
2019 02 14 06  10 05 45.353   -07 54 29.32  .08981 1.0715 158.5 21.4 1.52 142
2019 02 14 07  10 05 59.933   -07 54 40.60  .08965 1.0714 158.5 21.4 1.56 142
2019 02 14 08  10 06 14.565   -07 54 51.80  .08949 1.0712 158.5 21.4 1.60 141
2019 02 14 09  10 06 29.249   -07 55 02.92  .08933 1.0711 158.5 21.4 1.64 141
2019 02 14 10  10 06 43.986   -07 55 13.95  .08917 1.0709 158.5 21.4 1.67 140
2019 02 14 11  10 06 58.775   -07 55 24.90  .08901 1.0708 158.5 21.4 1.71 140
2019 02 14 12  10 07 13.617   -07 55 35.76  .08885 1.0707 158.5 21.4 1.75 140
2019 02 14 13  10 07 28.511   -07 55 46.53  .08869 1.0705 158.5 21.4 1.79 139
2019 02 14 14  10 07 43.460   -07 55 57.22  .08853 1.0704 158.6 21.4 1.83 139
2019 02 14 15  10 07 58.461   -07 56 07.82  .08837 1.0702 158.6 21.4 1.87 139
2019 02 14 16  10 08 13.517   -07 56 18.34  .08821 1.0701 158.6 21.4 1.92 138
2019 02 14 17  10 08 28.626   -07 56 28.77  .08805 1.0700 158.6 21.4 1.96 138
2019 02 14 18  10 08 43.790   -07 56 39.11  .08789 1.0698 158.6 21.4 2.00 138
2019 02 14 19  10 08 59.008   -07 56 49.36  .08773 1.0697 158.6 21.4 2.04 137
2019 02 14 20  10 09 14.281   -07 56 59.52  .08757 1.0696 158.6 21.4 2.09 137
2019 02 14 21  10 09 29.608   -07 57 09.59  .08741 1.0694 158.6 21.4 2.13 137
2019 02 14 22  10 09 44.991   -07 57 19.57  .08725 1.0693 158.6 21.4 2.18 136
2019 02 14 23  10 10 00.429   -07 57 29.46  .08709 1.0691 158.6 21.4 2.22 136
2019 02 15 00  10 10 15.923   -07 57 39.26  .08693 1.0690 158.6 21.3 2.27 136
2019 02 15 01  10 10 31.472   -07 57 48.96  .08678 1.0689 158.6 21.3 2.32 136
2019 02 15 02  10 10 47.078   -07 57 58.58  .08662 1.0687 158.6 21.3 2.36 135
2019 02 15 03  10 11 02.740   -07 58 08.10  .08646 1.0686 158.6 21.3 2.41 135